VLG85NT LEPA-LEJR

Flight info

Callsign VLG85NT
Flight time 1h 32m
Altitude 37000
Route BAVER M603 ALT N851 MGA
Aircraft A320/M-SDE3FGHIRWY/LB1

Departure

Time 2026-05-05 08:43
Airport Palma de Mallorca Airport (LEPA)

Arrival

Time 2026-05-05 10:15
Airport Jerez Airport (LEJR)
Time Latitude Longitude Altitude Speed Heading
2026-05-05 08:19 39.54901 2.73795 39 ft 0 kts 250°
2026-05-05 08:32 39.54901 2.73796 38 ft 2 kts 250°
2026-05-05 08:32 39.54909 2.73827 38 ft 4 kts 252°
2026-05-05 08:33 39.54919 2.73871 37 ft 4 kts 256°
2026-05-05 08:33 39.54923 2.73894 36 ft 4 kts 261°
2026-05-05 08:33 39.54925 2.73928 37 ft 4 kts 284°
2026-05-05 08:33 39.54917 2.73948 36 ft 1 kts 325°
2026-05-05 08:34 39.54914 2.73951 37 ft 0 kts 325°
2026-05-05 08:36 39.54949 2.73920 36 ft 15 kts 326°
2026-05-05 08:37 39.55035 2.73850 38 ft 14 kts 328°
2026-05-05 08:37 39.55114 2.73788 38 ft 13 kts 329°
2026-05-05 08:37 39.55180 2.73812 37 ft 10 kts 44°
2026-05-05 08:37 39.55238 2.73800 37 ft 8 kts 327°
2026-05-05 08:38 39.55285 2.73761 37 ft 9 kts 328°
2026-05-05 08:38 39.55369 2.73694 38 ft 18 kts 328°
2026-05-05 08:38 39.55472 2.73613 38 ft 16 kts 329°
2026-05-05 08:38 39.55565 2.73540 38 ft 15 kts 329°
2026-05-05 08:39 39.55655 2.73519 38 ft 13 kts 28°
2026-05-05 08:39 39.55702 2.73604 38 ft 12 kts 58°
2026-05-05 08:39 39.55759 2.73721 38 ft 18 kts 58°
2026-05-05 08:39 39.55823 2.73852 36 ft 16 kts 58°
2026-05-05 08:40 39.55880 2.73972 37 ft 15 kts 58°
2026-05-05 08:40 39.55931 2.74081 38 ft 14 kts 59°
2026-05-05 08:40 39.55981 2.74190 38 ft 19 kts 59°
2026-05-05 08:40 39.56062 2.74366 38 ft 23 kts 59°
2026-05-05 08:41 39.56147 2.74449 38 ft 10 kts
2026-05-05 08:41 39.56227 2.74397 38 ft 21 kts 324°
2026-05-05 08:41 39.56235 2.74282 38 ft 15 kts 236°
2026-05-05 08:41 39.56220 2.74251 38 ft 0 kts 238°
2026-05-05 08:42 39.56193 2.74195 37 ft 32 kts 238°
2026-05-05 08:42 39.55936 2.73663 37 ft 103 kts 238°
2026-05-05 08:42 39.55462 2.72658 40 ft 156 kts 238°
2026-05-05 08:42 39.54879 2.71410 605 ft 163 kts 237°
2026-05-05 08:43 39.54282 2.70157 1406 ft 164 kts 234°
2026-05-05 08:43 39.53667 2.68964 2099 ft 168 kts 234°
2026-05-05 08:43 39.52978 2.67622 2480 ft 190 kts 235°
2026-05-05 08:43 39.52210 2.66117 2816 ft 208 kts 235°
2026-05-05 08:44 39.51400 2.64524 3507 ft 213 kts 235°
2026-05-05 08:44 39.50572 2.62894 3994 ft 218 kts 235°
2026-05-05 08:44 39.49740 2.61259 4862 ft 217 kts 236°
2026-05-05 08:44 39.48904 2.59616 5663 ft 219 kts 236°
2026-05-05 08:45 39.48061 2.57964 6471 ft 221 kts 236°
2026-05-05 08:45 39.47207 2.56294 7240 ft 224 kts 236°
2026-05-05 08:45 39.46345 2.54610 8019 ft 226 kts 236°
2026-05-05 08:45 39.45476 2.52908 8821 ft 227 kts 236°
2026-05-05 08:46 39.44578 2.51127 9290 ft 248 kts 236°
2026-05-05 08:46 39.43609 2.49188 9718 ft 269 kts 236°
2026-05-05 08:46 39.42570 2.47100 10248 ft 286 kts 237°
2026-05-05 08:46 39.41432 2.44820 10542 ft 310 kts 237°
2026-05-05 08:47 39.40250 2.42459 11058 ft 322 kts 237°
2026-05-05 08:47 39.39021 2.40009 11851 ft 326 kts 237°
2026-05-05 08:47 39.37783 2.37545 12690 ft 328 kts 237°
2026-05-05 08:47 39.36540 2.35069 13537 ft 329 kts 237°
2026-05-05 08:48 39.35288 2.32584 14307 ft 331 kts 237°
2026-05-05 08:48 39.34028 2.30086 15053 ft 332 kts 237°
2026-05-05 08:48 39.32762 2.27579 15801 ft 334 kts 237°
2026-05-05 08:48 39.31490 2.25060 16528 ft 336 kts 238°
2026-05-05 08:49 39.30212 2.22531 17252 ft 338 kts 238°
2026-05-05 08:49 39.28923 2.19981 17966 ft 340 kts 238°
2026-05-05 08:49 39.27631 2.17424 18599 ft 342 kts 238°
2026-05-05 08:49 39.26329 2.14848 19194 ft 344 kts 238°
2026-05-05 08:50 39.25017 2.12258 19787 ft 346 kts 238°
2026-05-05 08:50 39.23698 2.09658 20368 ft 347 kts 238°
2026-05-05 08:50 39.22371 2.07045 20945 ft 350 kts 238°
2026-05-05 08:50 39.21035 2.04415 21513 ft 352 kts 237°
2026-05-05 08:51 39.19688 2.01767 22070 ft 354 kts 237°
2026-05-05 08:51 39.18330 1.99109 22622 ft 356 kts 237°
2026-05-05 08:51 39.16968 1.96438 23158 ft 358 kts 237°
2026-05-05 08:51 39.15718 1.93650 23646 ft 361 kts 245°
2026-05-05 08:52 39.14886 1.90591 24084 ft 363 kts 253°
2026-05-05 08:52 39.14228 1.87461 24527 ft 365 kts 253°
2026-05-05 08:52 39.13562 1.84301 24973 ft 366 kts 253°
2026-05-05 08:52 39.12900 1.81169 25411 ft 368 kts 253°
2026-05-05 08:53 39.12214 1.77948 25840 ft 369 kts 253°
2026-05-05 08:53 39.11538 1.74796 26266 ft 371 kts 253°
2026-05-05 08:53 39.10847 1.71592 26689 ft 372 kts 253°
2026-05-05 08:53 39.10155 1.68379 27106 ft 374 kts 253°
2026-05-05 08:54 39.09461 1.65147 27515 ft 375 kts 253°
2026-05-05 08:54 39.08765 1.61896 27929 ft 377 kts 253°
2026-05-05 08:54 39.08065 1.58633 28331 ft 379 kts 253°
2026-05-05 08:54 39.07359 1.55358 28727 ft 380 kts 253°
2026-05-05 08:55 39.06650 1.52076 29105 ft 382 kts 253°
2026-05-05 08:55 39.05934 1.48772 29476 ft 384 kts 253°
2026-05-05 08:55 39.05215 1.45457 29843 ft 385 kts 253°
2026-05-05 08:55 39.04493 1.42129 30155 ft 387 kts 253°
2026-05-05 08:56 39.03766 1.38788 30444 ft 389 kts 253°
2026-05-05 08:56 39.03035 1.35434 30739 ft 390 kts 253°
2026-05-05 08:56 39.02297 1.32063 31042 ft 391 kts 253°
2026-05-05 08:56 39.01561 1.28698 31466 ft 390 kts 253°
2026-05-05 08:57 39.00827 1.25357 31888 ft 388 kts 252°
2026-05-05 08:57 39.00093 1.22022 32293 ft 386 kts 252°
2026-05-05 08:57 38.99366 1.18706 32695 ft 385 kts 252°
2026-05-05 08:57 38.98644 1.15401 33090 ft 383 kts 252°
2026-05-05 08:58 38.97922 1.12107 33493 ft 382 kts 252°
2026-05-05 08:58 38.97201 1.08827 33898 ft 381 kts 252°
2026-05-05 08:58 38.96480 1.05567 34247 ft 379 kts 252°
2026-05-05 08:58 38.95756 1.02306 34580 ft 379 kts 252°
2026-05-05 08:59 38.95041 0.99098 34901 ft 378 kts 252°
2026-05-05 08:59 38.94319 0.95856 35198 ft 377 kts 252°
2026-05-05 08:59 38.93598 0.92618 35509 ft 377 kts 252°
2026-05-05 08:59 38.92878 0.89383 35791 ft 376 kts 252°
2026-05-05 09:00 38.92157 0.86148 36069 ft 376 kts 252°
2026-05-05 09:00 38.91438 0.82926 36340 ft 375 kts 252°
2026-05-05 09:00 38.90717 0.79706 36606 ft 375 kts 252°
2026-05-05 09:00 38.89997 0.76487 36845 ft 375 kts 252°
2026-05-05 09:01 38.89274 0.73264 36936 ft 375 kts 252°
2026-05-05 09:01 38.87777 0.66849 36953 ft 374 kts 248°
2026-05-05 09:02 38.85846 0.60638 36954 ft 374 kts 248°
2026-05-05 09:02 38.83904 0.54433 36954 ft 375 kts 247°
2026-05-05 09:03 38.81882 0.48274 36958 ft 375 kts 242°
2026-05-05 09:03 38.79053 0.42651 36950 ft 375 kts 237°
2026-05-05 09:04 38.76191 0.37105 36943 ft 375 kts 237°
2026-05-05 09:04 38.73309 0.31530 36946 ft 375 kts 237°
2026-05-05 09:05 38.70421 0.25953 36944 ft 376 kts 237°
2026-05-05 09:05 38.67529 0.20383 36945 ft 376 kts 237°
2026-05-05 09:06 38.64632 0.14814 36947 ft 376 kts 237°
2026-05-05 09:06 38.61732 0.09249 36948 ft 376 kts 237°
2026-05-05 09:07 38.58827 0.03684 36946 ft 376 kts 237°
2026-05-05 09:07 38.55914 -0.01874 36946 ft 377 kts 237°
2026-05-05 09:08 38.53002 -0.07434 36947 ft 377 kts 237°
2026-05-05 09:08 38.50087 -0.12998 36949 ft 377 kts 237°
2026-05-05 09:09 38.47172 -0.18553 36949 ft 377 kts 237°
2026-05-05 09:09 38.44246 -0.24108 36952 ft 377 kts 237°
2026-05-05 09:10 38.41314 -0.29665 36958 ft 377 kts 237°
2026-05-05 09:10 38.38388 -0.35213 36957 ft 377 kts 237°
2026-05-05 09:11 38.35452 -0.40756 36955 ft 377 kts 237°
2026-05-05 09:11 38.32503 -0.46301 36957 ft 378 kts 237°
2026-05-05 09:12 38.29575 -0.51811 36955 ft 378 kts 237°
2026-05-05 09:12 38.26704 -0.57409 36954 ft 378 kts 243°
2026-05-05 09:13 38.24501 -0.63482 36957 ft 378 kts 245°
2026-05-05 09:13 38.22313 -0.69565 36956 ft 378 kts 245°
2026-05-05 09:14 38.20113 -0.75651 36956 ft 379 kts 245°
2026-05-05 09:14 38.17910 -0.81731 36955 ft 379 kts 245°
2026-05-05 09:15 38.15705 -0.87815 36951 ft 379 kts 245°
2026-05-05 09:15 38.13496 -0.93899 36948 ft 379 kts 245°
2026-05-05 09:16 38.11284 -0.99981 36955 ft 380 kts 245°
2026-05-05 09:16 38.09058 -1.06068 36955 ft 380 kts 245°
2026-05-05 09:17 38.06845 -1.12111 36957 ft 380 kts 245°
2026-05-05 09:17 38.04618 -1.18194 36957 ft 380 kts 245°
2026-05-05 09:18 38.02387 -1.24286 36961 ft 381 kts 245°
2026-05-05 09:18 38.00150 -1.30372 36957 ft 381 kts 245°
2026-05-05 09:19 37.97906 -1.36459 36961 ft 381 kts 245°
2026-05-05 09:19 37.95661 -1.42541 36965 ft 381 kts 245°
2026-05-05 09:20 37.93407 -1.48623 36964 ft 381 kts 245°
2026-05-05 09:20 37.91146 -1.54704 36965 ft 382 kts 245°
2026-05-05 09:21 37.88882 -1.60787 36968 ft 382 kts 245°
2026-05-05 09:21 37.86628 -1.66833 36971 ft 382 kts 245°
2026-05-05 09:22 37.84354 -1.72916 36972 ft 382 kts 245°
2026-05-05 09:22 37.82084 -1.78992 36970 ft 382 kts 245°
2026-05-05 09:23 37.80194 -1.84046 36970 ft 382 kts 245°
2026-05-05 09:23 37.77911 -1.90117 36975 ft 383 kts 245°
2026-05-05 09:24 37.75622 -1.96196 36979 ft 383 kts 245°
2026-05-05 09:24 37.73340 -2.02274 36977 ft 383 kts 245°
2026-05-05 09:25 37.71050 -2.08352 36978 ft 383 kts 245°
2026-05-05 09:25 37.68746 -2.14426 36984 ft 384 kts 245°
2026-05-05 09:26 37.66441 -2.20498 36995 ft 383 kts 245°
2026-05-05 09:26 37.64137 -2.26561 36995 ft 383 kts 245°
2026-05-05 09:27 37.61845 -2.32592 36999 ft 384 kts 245°
2026-05-05 09:27 37.59538 -2.38651 37002 ft 383 kts 245°
2026-05-05 09:28 37.57222 -2.44711 37006 ft 383 kts 245°
2026-05-05 09:28 37.54905 -2.50765 37014 ft 383 kts 245°
2026-05-05 09:29 37.52592 -2.56812 37016 ft 383 kts 245°
2026-05-05 09:29 37.50284 -2.62813 37014 ft 383 kts 245°
2026-05-05 09:30 37.47958 -2.68859 37016 ft 383 kts 245°
2026-05-05 09:30 37.45635 -2.74894 37015 ft 383 kts 245°
2026-05-05 09:31 37.43299 -2.80929 37014 ft 383 kts 245°
2026-05-05 09:31 37.40967 -2.86965 37015 ft 383 kts 245°
2026-05-05 09:31 37.39806 -2.89973 36765 ft 382 kts 245°
2026-05-05 09:32 37.38644 -2.92978 36054 ft 383 kts 245°
2026-05-05 09:32 37.37474 -2.95988 35323 ft 384 kts 245°
2026-05-05 09:32 37.36295 -2.99010 34596 ft 385 kts 245°
2026-05-05 09:32 37.35113 -3.02037 33842 ft 387 kts 245°
2026-05-05 09:33 37.33924 -3.05086 32998 ft 388 kts 245°
2026-05-05 09:33 37.32733 -3.08142 32141 ft 391 kts 245°
2026-05-05 09:33 37.31543 -3.11198 31512 ft 388 kts 245°
2026-05-05 09:33 37.30360 -3.14227 30899 ft 384 kts 245°
2026-05-05 09:34 37.29202 -3.17191 30302 ft 381 kts 245°
2026-05-05 09:34 37.28036 -3.20171 29658 ft 379 kts 245°
2026-05-05 09:34 37.26877 -3.23123 29014 ft 375 kts 245°
2026-05-05 09:34 37.25728 -3.26046 28385 ft 372 kts 245°
2026-05-05 09:35 37.24590 -3.28942 27769 ft 369 kts 245°
2026-05-05 09:35 37.22343 -3.34663 26589 ft 362 kts 245°
2026-05-05 09:35 37.21234 -3.37487 26013 ft 360 kts 245°
2026-05-05 09:36 37.20133 -3.40288 25463 ft 357 kts 245°
2026-05-05 09:36 37.19039 -3.43066 24897 ft 354 kts 245°
2026-05-05 09:36 37.17949 -3.45829 24353 ft 351 kts 245°
2026-05-05 09:36 37.16867 -3.48568 23830 ft 349 kts 245°
2026-05-05 09:37 37.15789 -3.51292 23250 ft 347 kts 245°
2026-05-05 09:37 37.14718 -3.53998 22666 ft 345 kts 245°
2026-05-05 09:37 37.13652 -3.56681 22101 ft 343 kts 245°
2026-05-05 09:37 37.12591 -3.59351 21552 ft 341 kts 245°
2026-05-05 09:38 37.11550 -3.61974 21018 ft 339 kts 245°
2026-05-05 09:38 37.10503 -3.64608 20503 ft 337 kts 245°
2026-05-05 09:38 37.09460 -3.67229 20002 ft 335 kts 245°
2026-05-05 09:38 37.08425 -3.69834 19507 ft 334 kts 245°
2026-05-05 09:39 37.07392 -3.72429 19008 ft 332 kts 245°
2026-05-05 09:39 37.06369 -3.74997 18538 ft 331 kts 244°
2026-05-05 09:39 37.05342 -3.77572 18013 ft 330 kts 244°
2026-05-05 09:39 37.04321 -3.80131 17510 ft 328 kts 244°
2026-05-05 09:40 37.03304 -3.82676 17033 ft 326 kts 244°
2026-05-05 09:40 37.02297 -3.85202 16557 ft 324 kts 245°
2026-05-05 09:40 37.01295 -3.87714 16104 ft 322 kts 244°
2026-05-05 09:40 37.00296 -3.90215 15654 ft 320 kts 244°
2026-05-05 09:41 36.99302 -3.92697 15187 ft 318 kts 244°
2026-05-05 09:41 36.98310 -3.95165 14843 ft 317 kts 244°
2026-05-05 09:41 36.97324 -3.97618 14406 ft 316 kts 244°
2026-05-05 09:41 36.96355 -4.00035 13979 ft 314 kts 244°
2026-05-05 09:42 36.95376 -4.02472 13530 ft 313 kts 244°
2026-05-05 09:42 36.94397 -4.04898 13041 ft 312 kts 244°
2026-05-05 09:42 36.93422 -4.07314 12564 ft 311 kts 244°
2026-05-05 09:42 36.92451 -4.09722 12068 ft 311 kts 245°
2026-05-05 09:43 36.91479 -4.12135 11610 ft 310 kts 244°
2026-05-05 09:43 36.90509 -4.14541 11145 ft 310 kts 244°
2026-05-05 09:43 36.89539 -4.16942 10668 ft 309 kts 244°
2026-05-05 09:43 36.88611 -4.19235 10237 ft 309 kts 244°
2026-05-05 09:44 36.87642 -4.21630 10019 ft 307 kts 244°
2026-05-05 09:44 36.86698 -4.23959 10009 ft 291 kts 244°
2026-05-05 09:44 36.85806 -4.26159 10011 ft 279 kts 244°
2026-05-05 09:44 36.84933 -4.28318 10013 ft 277 kts 244°
2026-05-05 09:45 36.84068 -4.30462 10012 ft 277 kts 245°
2026-05-05 09:45 36.83309 -4.32659 9898 ft 274 kts 251°
2026-05-05 09:45 36.82740 -4.34922 9540 ft 272 kts 257°
2026-05-05 09:45 36.82366 -4.37235 9114 ft 271 kts 262°
2026-05-05 09:46 36.82182 -4.39546 8993 ft 271 kts 268°
2026-05-05 09:46 36.82174 -4.41898 9001 ft 272 kts 273°
2026-05-05 09:46 36.82357 -4.44257 9006 ft 273 kts 278°
2026-05-05 09:46 36.82659 -4.46596 9006 ft 273 kts 279°
2026-05-05 09:47 36.82958 -4.48936 9006 ft 273 kts 278°
2026-05-05 09:47 36.83255 -4.51277 9008 ft 273 kts 278°
2026-05-05 09:47 36.83550 -4.53615 9006 ft 273 kts 279°
2026-05-05 09:47 36.83843 -4.55952 9009 ft 272 kts 278°
2026-05-05 09:48 36.84134 -4.58288 9009 ft 272 kts 278°
2026-05-05 09:48 36.84427 -4.60630 9013 ft 273 kts 278°
2026-05-05 09:48 36.84721 -4.62967 9013 ft 273 kts 278°
2026-05-05 09:48 36.85014 -4.65304 9012 ft 272 kts 278°
2026-05-05 09:49 36.85307 -4.67642 9019 ft 273 kts 278°
2026-05-05 09:49 36.85599 -4.69983 9021 ft 273 kts 278°
2026-05-05 09:49 36.85889 -4.72322 9018 ft 273 kts 278°
2026-05-05 09:49 36.86178 -4.74665 9017 ft 272 kts 278°
2026-05-05 09:50 36.86466 -4.76999 9026 ft 273 kts 278°
2026-05-05 09:50 36.86756 -4.79342 9031 ft 273 kts 278°
2026-05-05 09:50 36.87045 -4.81677 9029 ft 272 kts 278°
2026-05-05 09:50 36.87334 -4.84016 9029 ft 272 kts 278°
2026-05-05 09:51 36.87620 -4.86354 9033 ft 272 kts 278°
2026-05-05 09:51 36.87902 -4.88661 9030 ft 271 kts 278°
2026-05-05 09:51 36.88187 -4.90991 9036 ft 272 kts 279°
2026-05-05 09:51 36.88475 -4.93331 9036 ft 272 kts 278°
2026-05-05 09:52 36.88763 -4.95672 9034 ft 272 kts 278°
2026-05-05 09:52 36.89051 -4.98009 9034 ft 272 kts 278°
2026-05-05 09:52 36.89335 -5.00347 9035 ft 272 kts 278°
2026-05-05 09:52 36.89619 -5.02686 9034 ft 273 kts 278°
2026-05-05 09:53 36.89902 -5.05031 9035 ft 272 kts 278°
2026-05-05 09:53 36.90184 -5.07365 9039 ft 271 kts 278°
2026-05-05 09:53 36.90467 -5.09701 9034 ft 272 kts 278°
2026-05-05 09:53 36.90749 -5.12039 9038 ft 272 kts 278°
2026-05-05 09:54 36.91032 -5.14376 9040 ft 272 kts 278°
2026-05-05 09:54 36.91314 -5.16712 9038 ft 272 kts 278°
2026-05-05 09:54 36.91593 -5.19050 9034 ft 272 kts 278°
2026-05-05 09:54 36.91872 -5.21386 9042 ft 272 kts 278°
2026-05-05 09:55 36.92150 -5.23724 9040 ft 272 kts 278°
2026-05-05 09:55 36.92425 -5.26029 9042 ft 272 kts 278°
2026-05-05 09:55 36.92702 -5.28364 9042 ft 272 kts 278°
2026-05-05 09:55 36.92957 -5.30706 9040 ft 272 kts 275°
2026-05-05 09:56 36.93008 -5.33068 9041 ft 272 kts 268°
2026-05-05 09:56 36.92812 -5.35421 9040 ft 273 kts 261°
2026-05-05 09:56 36.92430 -5.37743 9042 ft 272 kts 259°
2026-05-05 09:56 36.92042 -5.40055 9046 ft 273 kts 259°
2026-05-05 09:57 36.91655 -5.42380 9045 ft 273 kts 259°
2026-05-05 09:57 36.91272 -5.44697 9047 ft 273 kts 259°
2026-05-05 09:57 36.90887 -5.47020 9044 ft 273 kts 259°
2026-05-05 09:57 36.90500 -5.49338 9051 ft 273 kts 259°
2026-05-05 09:58 36.90115 -5.51658 9046 ft 272 kts 259°
2026-05-05 09:58 36.89731 -5.53978 9049 ft 273 kts 259°
2026-05-05 09:58 36.89347 -5.56295 8915 ft 271 kts 259°
2026-05-05 09:58 36.88964 -5.58595 8552 ft 270 kts 259°
2026-05-05 09:59 36.88579 -5.60892 8175 ft 269 kts 259°
2026-05-05 09:59 36.88197 -5.63175 7819 ft 268 kts 259°
2026-05-05 09:59 36.87815 -5.65453 7441 ft 268 kts 260°
2026-05-05 09:59 36.87433 -5.67729 7084 ft 267 kts 259°
2026-05-05 10:00 36.87053 -5.69991 6725 ft 266 kts 259°
2026-05-05 10:00 36.86674 -5.72244 6340 ft 265 kts 260°
2026-05-05 10:00 36.86141 -5.74446 5951 ft 265 kts 248°
2026-05-05 10:00 36.85238 -5.76447 5580 ft 265 kts 236°
2026-05-05 10:01 36.84012 -5.78164 5218 ft 265 kts 224°
2026-05-05 10:01 36.82542 -5.79484 5008 ft 264 kts 211°
2026-05-05 10:01 36.80846 -5.80407 5005 ft 268 kts 199°
2026-05-05 10:01 36.79028 -5.80966 5007 ft 269 kts 195°
2026-05-05 10:02 36.77205 -5.81498 5011 ft 270 kts 195°
2026-05-05 10:02 36.75377 -5.82034 5002 ft 270 kts 195°
2026-05-05 10:02 36.73553 -5.82570 5004 ft 270 kts 195°
2026-05-05 10:02 36.71724 -5.83108 5006 ft 269 kts 195°
2026-05-05 10:03 36.69900 -5.83646 5010 ft 270 kts 195°
2026-05-05 10:03 36.68075 -5.84183 5008 ft 270 kts 195°
2026-05-05 10:03 36.66248 -5.84718 5010 ft 270 kts 195°
2026-05-05 10:03 36.64420 -5.85254 5010 ft 270 kts 195°
2026-05-05 10:04 36.62596 -5.85788 5004 ft 270 kts 195°
2026-05-05 10:04 36.60771 -5.86320 5012 ft 270 kts 195°
2026-05-05 10:04 36.58946 -5.86850 5011 ft 269 kts 195°
2026-05-05 10:04 36.57124 -5.87379 5009 ft 269 kts 195°
2026-05-05 10:05 36.55302 -5.87912 5011 ft 269 kts 197°
2026-05-05 10:05 36.53595 -5.88813 5003 ft 266 kts 214°
2026-05-05 10:05 36.52216 -5.90276 4681 ft 259 kts 232°
2026-05-05 10:05 36.51295 -5.92157 4439 ft 250 kts 249°
2026-05-05 10:06 36.50859 -5.94185 4308 ft 238 kts 263°
2026-05-05 10:06 36.50637 -5.96187 4184 ft 231 kts 263°
2026-05-05 10:06 36.50409 -5.98124 4073 ft 222 kts 263°
2026-05-05 10:06 36.50186 -5.99994 4015 ft 214 kts 263°
2026-05-05 10:07 36.49977 -6.01753 4006 ft 203 kts 264°
2026-05-05 10:07 36.49944 -6.03471 3946 ft 196 kts 277°
2026-05-05 10:07 36.50173 -6.05079 3827 ft 183 kts 282°
2026-05-05 10:07 36.50407 -6.06580 3680 ft 169 kts 282°
2026-05-05 10:08 36.50615 -6.07952 3487 ft 157 kts 282°
2026-05-05 10:08 36.50815 -6.09282 3032 ft 157 kts 282°
2026-05-05 10:08 36.51016 -6.10605 2567 ft 155 kts 282°
2026-05-05 10:08 36.51217 -6.11926 2541 ft 158 kts 282°
2026-05-05 10:09 36.51424 -6.13272 2537 ft 160 kts 282°
2026-05-05 10:09 36.51774 -6.14571 2531 ft 159 kts 302°
2026-05-05 10:09 36.52560 -6.15518 2535 ft 160 kts 328°
2026-05-05 10:09 36.53620 -6.15897 2533 ft 161 kts 356°
2026-05-05 10:10 36.54720 -6.15617 2537 ft 163 kts 19°
2026-05-05 10:10 36.55776 -6.15099 2529 ft 163 kts 19°
2026-05-05 10:10 36.56837 -6.14585 2541 ft 164 kts 19°
2026-05-05 10:10 36.57893 -6.14073 2519 ft 163 kts 19°
2026-05-05 10:11 36.58938 -6.13569 2516 ft 163 kts 19°
2026-05-05 10:11 36.59992 -6.13060 2509 ft 161 kts 19°
2026-05-05 10:11 36.61009 -6.12566 2128 ft 156 kts 19°
2026-05-05 10:11 36.62035 -6.12070 1654 ft 159 kts 18°
2026-05-05 10:12 36.63060 -6.11573 1628 ft 161 kts 19°
2026-05-05 10:12 36.64105 -6.11064 1610 ft 162 kts 19°
2026-05-05 10:12 36.65153 -6.10553 1621 ft 162 kts 19°
2026-05-05 10:12 36.66195 -6.10045 1614 ft 161 kts 19°
2026-05-05 10:13 36.67242 -6.09535 1541 ft 163 kts 19°
2026-05-05 10:13 36.68264 -6.09037 1298 ft 151 kts 20°
2026-05-05 10:13 36.69216 -6.08571 1080 ft 145 kts 19°
2026-05-05 10:13 36.70141 -6.08117 867 ft 142 kts 19°
2026-05-05 10:14 36.71054 -6.07671 672 ft 139 kts 19°
2026-05-05 10:14 36.71957 -6.07231 473 ft 139 kts 18°
2026-05-05 10:14 36.72849 -6.06797 272 ft 137 kts 19°
2026-05-05 10:14 36.73736 -6.06367 83 ft 135 kts 20°
2026-05-05 10:15 36.74449 -6.06024 89 ft 79 kts 21°
2026-05-05 10:15 36.74790 -6.05856 98 ft 37 kts 20°
2026-05-05 10:15 36.74880 -6.05899 99 ft 13 kts 297°
2026-05-05 10:15 36.74881 -6.06020 95 ft 18 kts 221°
2026-05-05 10:16 36.74797 -6.06060 94 ft 16 kts 203°
2026-05-05 10:16 36.74757 -6.06167 92 ft 16 kts 284°
2026-05-05 10:16 36.74856 -6.06262 94 ft 15 kts 16°
2026-05-05 10:16 36.74907 -6.06268 95 ft 6 kts 294°
2026-05-05 10:17 36.74925 -6.06318 95 ft 6 kts 294°
2026-05-05 10:17 36.74929 -6.06331 95 ft 0 kts 294°